伽利略0213星导航星座 (GSAT0213 (GALILEO 17))

导读

GALILEO 17 (26D)是欧洲空间局(ESA)主导的伽利略全球卫星导航系统的组成卫星,于2016年11月17日发射升空。作为伽利略系统的中地球轨道导航卫星,它承担着全球定位、导航与授时服务任务,补充完善了伽利略系统的星座覆盖,提升了系统服务精度与可靠性,为民用、商用等领域提供独立的高精度卫星导航支撑,是欧洲自主卫星导航体系建设的重要节点。

基本信息
目录编号:
41861
目录名称:
GALILEO 17 (26D)
国际标识:
2016-069C
轨道中心:
EARTH
卫星名称:
伽利略0213星
卫星全名:
伽利略0213星导航星座 (GSAT0213 (GALILEO 17))
卫星状态:
在轨 (已飞行3539 天)
发射日期:
2016-11-17 UTC
国别 :
(ESA)
星等 :
--
轨道信息
数据来源 国际轨道数据 AOE轨道数据
星历时间 2026-07-22T11:52:10+0800
5天前
查看轨道信息
2026-07-23T08:00:00+0800
4天前
查看轨道信息
半长轴 29600.286km 29600.24km
偏心率 0.0003815 0.0003291
轨道倾角 55.518° 55.518°
近地点辐角 320.598° 321.563°
升交点赤经 100.121° 100.098°
平近点角 39.408° 193.213°
近地点 23210.856km 23212.361km
远地点 23233.442km 23231.845km
周期 844.702分钟 844.700分钟
每日圈数 1.704743 1.704747
详细信息
平衡模式:
三轴稳定
覆盖范围:
全球
运营商:
欧盟空间计划局
运营商所在国:
法国大都会
使用方式:
暂无
卫星简介
伽利略定位系统(Galileo)是一个全球导航卫星系统,于2016年投入使用由欧盟通过ESA创建,由欧盟空间计划局(EUSPA)运营。该系统有两个地面操控站,并且在高纬度地区提供比其他系统更好的定位服务。该卫星仍在工作。
2D轨道图
3D轨道图
轨道高度分析图
轨道倾角分析图
轨道综合分析图
查看轨道综合分析图